• MPC Preparation (Info)

  • MPEC 2013-U12 : 2013 TC136

    The following Minor Planet Electronic Circular may be linked-to from your own Web pages, but must not otherwise be redistributed electronically.

    A form allowing access to any MPEC is at the bottom of this page.


    Read MPEC 2013-U11 Read MPEC 2013-U13


    M.P.E.C. 2013-U12                                Issued 2013 Oct. 18, 19:57 UT
    
         The Minor Planet Electronic Circulars contain information on unusual
             minor planets and routine data on comets.  They are published
       on behalf of Commission 20 of the International Astronomical Union by the
              Minor Planet Center, Smithsonian Astrophysical Observatory,
                              Cambridge, MA 02138, U.S.A.
    
                 Prepared using the Tamkin Foundation Computer Network
    
                                  MPC@CFA.HARVARD.EDU
                URL https://www.minorplanetcenter.net/    ISSN 1523-6714
    
                                      2013 TC136
    
    Observations:
         K13TD6C* C2013 10 15.44122 03 48 36.34 +27 15 42.7          18.7 VqEU012703
         K13TD6C  C2013 10 15.44848 03 48 35.70 +27 15 23.1          19.5 VqEU012703
         K13TD6C  C2013 10 15.45579 03 48 35.32 +27 15 04.2          19.8 VqEU012703
         K13TD6C  C2013 10 15.46303 03 48 34.80 +27 14 46.0          19.5 VqEU012703
         K13TD6C KC2013 10 15.48876 03 48 33.15 +27 13 36.1          19.5 RoEU012291
         K13TD6C KC2013 10 15.49207 03 48 32.93 +27 13 27.2          19.4 RoEU012291
         K13TD6C KC2013 10 15.49538 03 48 32.72 +27 13 18.4          19.5 RoEU012291
         K13TD6C  C2013 10 15.50468 03 48 32.04 +27 12 54.3          20.2 VqEU012703
         K13TD6C  C2013 10 15.50534 03 48 32.06 +27 12 51.1          19.6 VqEU012703
         K13TD6C  C2013 10 15.50602 03 48 31.95 +27 12 51.3          19.9 VqEU012703
         K13TD6C  C2013 10 15.50669 03 48 32.00 +27 12 48.5          19.2 VqEU012703
         K13TD6C KC2013 10 15.89002 03 48 10.53 +26 55 48.4                qEU012J95
         K13TD6C KC2013 10 15.90510 03 48 09.56 +26 55 08.7          19.2 RqEU012J95
         K13TD6C  C2013 10 16.27025 03 47 47.45 +26 39 10.3          19.2 RoEU012926
         K13TD6C  C2013 10 16.28682 03 47 46.36 +26 38 26.8          19.1 RoEU012926
         K13TD6C  C2013 10 16.29375 03 47 46.00 +26 38 07.8          19.5 VqEU012703
         K13TD6C  C2013 10 16.29999 03 47 45.47 +26 37 52.1          19.2 RoEU012926
         K13TD6C  C2013 10 16.30213 03 47 45.32 +26 37 46.4          19.5 VqEU012703
         K13TD6C  C2013 10 16.31053 03 47 44.77 +26 37 24.0          20.1 VqEU012703
         K13TD6C 6C2013 10 16.43983 03 47 36.85 +26 31 45.2          20.0 RtEU012F65
         K13TD6C 6C2013 10 16.44087 03 47 36.78 +26 31 42.5          20.0 RtEU012F65
         K13TD6C  C2013 10 16.45228 03 47 35.11 +26 31 09.4          19.6 VqEU012G96
         K13TD6C  C2013 10 16.45750 03 47 34.77 +26 30 55.5          19.6 VqEU012G96
         K13TD6C  C2013 10 16.46272 03 47 34.40 +26 30 41.8          19.6 VqEU012G96
         K13TD6C  C2013 10 16.46796 03 47 34.04 +26 30 27.7          19.8 VqEU012G96
         K13TD6C KC2013 10 17.08884 03 46 55.78 +26 02 57.0                qEU012J95
         K13TD6C KC2013 10 17.09745 03 46 55.25 +26 02 33.2                qEU012J95
         K13TD6C KC2013 10 17.11006 03 46 54.32 +26 02 00.3          19.5 RqEU012J95
         K13TD6C KC2013 10 17.24424303 46 46.51 +25 56 06.9          19.6  rEU012H21
         K13TD6C KC2013 10 17.25304403 46 45.89 +25 55 44.5          19.5  rEU012H21
         K13TD6C IC2013 10 17.32609 03 46 41.26 +25 52 33.3          19.5 RqEU012448
         K13TD6C KC2013 10 17.34951 03 46 39.45 +25 51 29.2          19.8 RqEU012448
         K13TD6C KC2013 10 17.36429 03 46 38.49 +25 50 51.7          19.7 RqEU012448
         K13TD6C  C2013 10 18.24959 03 45 41.88 +25 11 35.1          19.9 VqEU012G96
         K13TD6C  C2013 10 18.25094 03 45 41.77 +25 11 31.8          19.4 VqEU012G96
         K13TD6C  C2013 10 18.25227 03 45 41.69 +25 11 28.1          19.8 VqEU012G96
         K13TD6C  C2013 10 18.25360 03 45 41.58 +25 11 24.5          20.2 VqEU012G96
         K13TD6C  C2013 10 18.25495 03 45 41.49 +25 11 20.8          19.7 VqEU012G96
         K13TD6C  C2013 10 18.39987 03 45 31.06 +25 04 57.9          19.1 RoEU012926
         K13TD6C  C2013 10 18.40998 03 45 30.35 +25 04 31.1          19.0 RoEU012926
         K13TD6C KC2013 10 18.41725 03 45 29.76 +25 04 11.2          19.2 RqEU012448
         K13TD6C  C2013 10 18.42007 03 45 29.60 +25 04 03.9          19.7 RoEU012926
         K13TD6C KC2013 10 18.43094 03 45 28.72 +25 03 34.5          19.1 RqEU012448
         K13TD6C KC2013 10 18.44566 03 45 27.68 +25 02 54.7          19.7 RqEU012448
    
    Observer details:
    291 LPL/Spacewatch II.  Observer R. S. McMillan.  1.8-m f/2.7 reflector + CCD.
    448 Desert Moon Observatory.  Observer B. L. Stevens.  0.3-m
        Schmidt-Cassegrain + CCD.
    703 Catalina Sky Survey.  Observer A. Boattini.  Measurers A. Boattini,
        E. J. Christensen, A. R. Gibbs, A. D. Grauer, R. E. Hill, J. A. Johnson,
        R. A. Kowalski, S. M. Larson, F. C. Shelly.  0.68-m Schmidt + CCD.
    926 Tenagra II Observatory.  Observers M. Schwartz, P. R. Holvorcem.  0.81-m
        f/7 Ritchey-Chretien + CCD.
    F65 Haleakala-Faulkes Telescope North.  Observer R. Miles.  2.0-m f/10.0
        Ritchey-Chretien + CCD.
    G96 Mt. Lemmon Survey.  Observers J. A. Johnson, A. Boattini.  Measurers
        A. Boattini, E. J. Christensen, A. R. Gibbs, A. D. Grauer, R. E. Hill,
        J. A. Johnson, R. A. Kowalski, S. M. Larson, F. C. Shelly.  1.5-m
        reflector + CCD.
    H21 Astronomical Research Observatory, Westfield.  Observer R. Holmes.
        Measurers S. Foglia, L. Buzzi, H. Devore, A. Kostin, T. Linder,
        T. Lister. T.  0.61-m f/4.0 astrograph + CCD.
    J95 Great Shefford.  Observer P. Birtwhistle.  0.40-m f/6.0 Schmidt-Cassegrain
        + CCD.
    
    Orbital elements:
    2013 TC136                                               Earth MOID = 0.3227 AU
    Epoch 2013 Nov. 4.0 TT = JDT 2456600.5                  MPC
    M  29.20085              (2000.0)            P               Q
    n   0.29778422     Peri.  106.50901     +0.79539905     +0.55416093
    a   2.2209303      Node   220.76965     -0.59044632     +0.79989405
    e   0.4900931      Incl.   22.07812     +0.13679728     +0.23038050
    P   3.31           H   19.3           G   0.15           U   7
    Residuals in seconds of arc
    131015 703  1.3+  0.3+    131016 703  1.3+  0.6-    131017 448  1.6+  1.3+
    131015 703  0.9-  0.0     131016 926  0.3-  0.2-    131017 448  0.5-  0.9-
    131015 703  0.5+  0.5+    131016 703  0.3-  0.0     131017 448  0.6+  0.8+
    131015 703  0.1-  1.5+    131016 703  0.1-  0.3-    131018 G96  0.1-  0.0
    131015 291  0.2+  0.2-    131016 F65  0.3-  0.3-    131018 G96  0.3-  0.2+
    131015 291  0.2+  0.3-    131016 F65  0.3-  0.3-    131018 G96  0.2-  0.0
    131015 291  0.2+  0.3-    131016 G96  0.0   0.1-    131018 G96  0.4-  0.1-
    131015 703  0.6-  0.6+    131016 G96  0.2+  0.1-    131018 G96  0.3-  0.2-
    131015 703  0.2+  0.9-    131016 G96  0.0   0.1+    131018 926  0.3-  0.1+
    131015 703  0.7-  1.1+    131016 G96  0.0   0.0     131018 926  0.1+  0.2+
    131015 703  0.6+  0.1+    131017 J95  0.3-  0.4+    131018 448  0.3+  0.1+
    131015 J95  0.2-  0.1+    131017 J95  0.5+  0.6-    131018 926  0.1-  0.1-
    131015 J95  0.7-  0.2-    131017 J95  0.4-  0.0     131018 448  0.3-  0.0
    131016 926  0.4-  0.1+    131017 H21  0.4+  0.2+    131018 448  0.1+  0.4-
    131016 926  0.2-  0.0     131017 H21  0.2+  1.0+
    
    Ephemeris:
    2013 TC136               a,e,i = 2.22, 0.49, 22                  q = 1.1325
    Date    TT    R. A. (2000) Decl.     Delta      r     Elong.  Phase     V
    2013 09 18    03 51 26.8 +44 33 35   0.5218  1.2660   107.8    49.1    20.2
    ...
    2013 10 03    03 56 41.9 +35 55 32   0.4985  1.3436   123.8    38.2    20.0
    ...
    2013 10 11    03 52 31.4 +30 28 26   0.4940  1.3891   134.3    31.0    19.8
    ...
    2013 10 17    03 47 01.4 +26 07 02   0.4970  1.4247   142.8    25.0    19.7
    2013 10 18    03 45 57.4 +25 22 46   0.4981  1.4307   144.3    24.0    19.7
    2013 10 19    03 44 51.2 +24 38 24   0.4995  1.4368   145.8    23.0    19.7
    ...
    2013 10 25    03 37 38.6 +20 13 25   0.5121  1.4736   154.6    16.8    19.6
    ...
    2013 11 02    03 27 15.2 +14 37 55   0.5421  1.5237   165.8     9.2    19.5
    ...
    2013 11 17    03 09 49.1 +06 16 18   0.6419  1.6199   166.5     8.2    20.0
    
    A. U. Tomatic                (C) Copyright 2013 MPC           M.P.E.C. 2013-U12
    

    Read MPEC 2013-U11 Read MPEC 2013-U13


    MPEC number:

    Enter an MPEC number in one of the following forms:

    • 1997-B01 (the full form)
    • J97B01 (the packed version of the full form)
    • B01 (the abbreviated form)